FW8708 Weather Reports


time (UTC)temp
C
wind
direction
speed
KPH
gust
KPH
rain 1hr
cm
rain 24hr
cm
rain mn
cm
humidity
%
barometer
mb
20260504151051 13 267 17.7 27.4 0.00 0.00 0.00 60 1019.1
20260504150552 13 267 11.3 20.9 0.00 0.00 0.00 59 1019.0
20260504141049 14 254 12.9 25.7 0.00 0.00 0.00 56 1019.3
20260504140546 13 215 14.5 24.1 0.00 0.00 0.00 56 1019.1
20260504130532 11 285 8.0 25.7 0.00 0.00 0.00 62 1019.2
20260504110515 7 249 8.0 17.7 0.00 0.00 0.00 69 1018.8
20260504100510 4 259 0.0 3.2 0.00 0.00 0.00 79 1018.9
20260504081559 6 259 4.8 9.7 0.00 0.00 0.00 73 1019.0
20260504081059 6 259 4.8 9.7 0.00 0.00 0.00 72 1019.1
20260504080558 6 259 4.8 9.7 0.00 0.00 0.00 71 1019.1
20260504050519 7 300 0.0 4.8 0.00 0.00 0.00 60 1019.8
20260504050019 7 300 1.6 4.8 0.00 0.00 0.00 58 1019.8
20260504045517 7 300 1.6 4.8 0.00 0.00 0.00 57 1019.8
20260504045018 7 300 0.0 9.7 0.00 0.00 0.00 59 1019.8
20260504044516 7 305 3.2 9.7 0.00 0.00 0.00 56 1019.8
20260504044016 7 305 3.2 9.7 0.00 0.00 0.00 58 1019.8
20260504043522 6 310 3.2 6.4 0.00 0.00 0.00 62 1019.8
20260504043013 6 311 1.6 4.8 0.00 0.00 0.00 66 1019.8
20260504042511 5 311 0.0 3.2 0.00 0.00 0.00 67 1019.8
20260504042010 5 311 0.0 3.2 0.00 0.00 0.00 68 1019.8
20260504041510 5 311 0.0 4.8 0.00 0.00 0.00 68 1019.8
20260504041010 5 311 1.6 4.8 0.00 0.00 0.00 68 1019.7
20260504040508 5 311 0.0 3.2 0.00 0.00 0.00 67 1019.8
20260504040008 5 311 0.0 4.8 0.00 0.00 0.00 67 1019.7
20260504035507 5 311 1.6 4.8 0.00 0.00 0.00 68 1019.8
20260504035007 5 311 0.0 3.2 0.00 0.00 0.00 66 1019.8
20260504034508 5 311 0.0 6.4 0.00 0.00 0.00 66 1019.9
20260504034007 5 311 1.6 6.4 0.00 0.00 0.00 62 1019.9
20260504033506 5 311 3.2 6.4 0.00 0.00 0.00 65 1020.0
20260504033005 5 311 1.6 4.8 0.00 0.00 0.00 65 1019.9
20260504032505 5 311 0.0 3.2 0.00 0.00 0.00 65 1019.8
20260504032007 5 311 1.6 4.8 0.00 0.00 0.00 65 1019.9
20260504031506 5 311 0.0 4.8 0.00 0.00 0.00 65 1019.8
20260504031005 5 311 1.6 3.2 0.00 0.00 0.00 65 1019.8
20260504030504 5 311 0.0 3.2 0.00 0.00 0.00 65 1019.8
20260504030005 5 311 0.0 3.2 0.00 0.00 0.00 63 1019.8
20260504025505 5 311 1.6 4.8 0.00 0.00 0.00 62 1019.9
20260504025005 5 311 1.6 4.8 0.00 0.00 0.00 61 1020.0
20260504024508 6 311 1.6 3.2 0.00 0.00 0.00 60 1020.0
20260504024006 6 311 0.0 3.2 0.00 0.00 0.00 58 1020.0
20260504023504 6 311 0.0 3.2 0.00 0.00 0.00 58 1020.0
20260504023004 7 311 1.6 4.8 0.00 0.00 0.00 53 1020.1
20260504022503 7 311 1.6 4.8 0.00 0.00 0.00 51 1020.1
20260504022004 8 311 1.6 4.8 0.00 0.00 0.00 50 1020.1
20260504021504 9 311 0.0 4.8 0.00 0.00 0.00 46 1019.8
20260504021003 9 311 3.2 6.4 0.00 0.00 0.00 45 1019.8
20260504020503 10 311 1.6 8.0 0.00 0.00 0.00 42 1019.7
20260504020003 10 310 1.6 12.9 0.00 0.00 0.00 42 1019.6
20260504015503 10 310 1.6 12.9 0.00 0.00 0.00 42 1019.6
20260504015003 10 304 4.8 12.9 0.00 0.00 0.00 42 1019.6
20260504014502 10 303 4.8 14.5 0.00 0.00 0.00 41 1019.5
20260504014003 10 304 6.4 14.5 0.00 0.00 0.00 40 1019.4
20260504013505 10 302 6.4 16.1 0.00 0.00 0.00 40 1019.2
20260504013102 10 313 6.4 16.1 0.00 0.00 0.00 41 1019.2
20260504012502 10 298 6.4 19.3 0.00 0.00 0.00 41 1019.3
20260504012001 10 297 6.4 20.9 0.00 0.00 0.00 42 1019.2
20260504011502 9 308 8.0 16.1 0.00 0.00 0.00 44 1019.0
20260504011001 8 263 4.8 11.3 0.00 0.00 0.00 48 1019.2
20260504010501 7 259 3.2 9.7 0.00 0.00 0.00 54 1019.1
20260504010105 7 257 1.6 6.4 0.00 0.00 0.00 56 1019.0
20260504005501 7 257 1.6 6.4 0.00 0.00 0.00 57 1019.0
20260504005100 7 257 3.2 6.4 0.00 0.00 0.00 55 1019.0
20260504004600 8 257 1.6 4.8 0.00 0.00 0.00 55 1018.9
20260504004500 8 257 3.2 4.8 0.00 0.00 0.00 54 1019.0
20260504004059 8 257 1.6 4.8 0.00 0.00 0.00 54 1018.9
20260504003559 8 257 1.6 4.8 0.00 0.00 0.00 53 1019.0
20260504003059 8 257 1.6 4.8 0.00 0.00 0.00 54 1019.0
20260504002559 9 257 1.6 3.2 0.00 0.00 0.00 53 1018.9
20260504002101 10 257 1.6 3.2 0.00 0.00 0.00 51 1018.8
20260504001559 10 257 1.6 4.8 0.00 0.00 0.00 48 1018.9
20260504001059 11 257 1.6 9.7 0.00 0.00 0.00 44 1018.9
20260504000558 11 257 3.2 8.0 0.00 0.00 0.00 41 1018.9
20260504000136 12 257 1.6 4.8 0.00 0.00 0.00 40 1018.9
20260503235558 12 257 1.6 6.4 0.00 0.00 0.00 37 1018.9
20260503235058 12 257 3.2 11.3 0.00 0.00 0.00 37 1018.9
20260503234601 13 257 3.2 11.3 0.00 0.00 0.00 34 1018.9
20260503234058 13 250 3.2 11.3 0.00 0.00 0.00 33 1018.8
20260503233558 13 248 4.8 11.3 0.00 0.00 0.00 32 1018.7
20260503233057 13 259 4.8 14.5 0.00 0.00 0.00 32 1018.7
20260503232557 14 249 8.0 14.5 0.00 0.00 0.00 31 1018.7
20260503232057 14 248 3.2 14.5 0.00 0.00 0.00 34 1018.5
20260503231557 14 263 8.0 14.5 0.00 0.00 0.00 33 1018.4
20260503231056 14 269 6.4 12.9 0.00 0.00 0.00 34 1018.5
20260503230557 14 256 6.4 14.5 0.00 0.00 0.00 34 1018.5
20260503230057 14 233 8.0 17.7 0.00 0.00 0.00 33 1018.5
20260503225555 15 243 12.9 17.7 0.00 0.00 0.00 32 1018.5
20260503225055 15 277 8.0 14.5 0.00 0.00 0.00 32 1018.6
20260503224555 15 264 4.8 16.1 0.00 0.00 0.00 33 1018.6
20260503224054 15 243 4.8 11.3 0.00 0.00 0.00 31 1018.6
20260503223554 15 257 1.6 17.7 0.00 0.00 0.00 31 1018.7
20260503223054 15 288 9.7 19.3 0.00 0.00 0.00 31 1018.8
20260503222554 15 292 8.0 19.3 0.00 0.00 0.00 31 1018.7
20260503222052 15 10 3.2 12.9 0.00 0.00 0.00 31 1018.7
20260503221553 15 9 6.4 16.1 0.00 0.00 0.00 28 1018.7
20260503221056 15 5 6.4 16.1 0.00 0.00 0.00 30 1018.7
20260503220552 15 263 6.4 16.1 0.00 0.00 0.00 29 1018.8
20260503220052 15 316 6.4 16.1 0.00 0.00 0.00 30 1018.8
20260503215552 15 302 8.0 22.5 0.00 0.00 0.00 30 1018.8
20260503215051 15 327 9.7 25.7 0.00 0.00 0.00 29 1018.9
20260503214551 15 263 12.9 25.7 0.00 0.00 0.00 29 1018.8
20260503214054 15 279 9.7 20.9 0.00 0.00 0.00 31 1018.9
20260503213550 15 271 9.7 22.5 0.00 0.00 0.00 28 1018.9
20260503213050 15 252 11.3 30.6 0.00 0.00 0.00 29 1019.1
20260503212551 15 257 17.7 30.6 0.00 0.00 0.00 27 1019.0
20260503212047 15 252 9.7 22.5 0.00 0.00 0.00 28 1019.0
20260503211548 15 196 4.8 12.9 0.00 0.00 0.00 36 1019.1
20260503211046 15 173 0.0 11.3 0.00 0.00 0.00 33 1019.1
20260503210546 15 218 6.4 20.9 0.00 0.00 0.00 30 1019.2
20260503210047 15 270 9.7 16.1 0.00 0.00 0.00 33 1019.2
20260503205546 15 272 9.7 17.7 0.00 0.00 0.00 36 1019.2
20260503205046 15 281 4.8 16.1 0.00 0.00 0.00 36 1019.2
20260503204544 15 277 3.2 16.1 0.00 0.00 0.00 32 1019.2
20260503204042 15 291 6.4 16.1 0.00 0.00 0.00 37 1019.3
20260503203542 14 209 4.8 19.3 0.00 0.00 0.00 32 1019.4
20260503203044 14 209 9.7 19.3 0.00 0.00 0.00 34 1019.4
20260503202541 14 344 6.4 20.9 0.00 0.00 0.00 33 1019.3
20260503202041 14 323 11.3 20.9 0.00 0.00 0.00 33 1019.5
20260503201540 14 309 9.7 19.3 0.00 0.00 0.00 35 1019.5
20260503201043 13 157 4.8 16.1 0.00 0.00 0.00 33 1019.5
20260503200539 14 222 8.0 16.1 0.00 0.00 0.00 37 1019.6
20260503200038 13 273 8.0 22.5 0.00 0.00 0.00 33 1019.6
20260503195539 13 283 12.9 25.7 0.00 0.00 0.00 32 1019.8
20260503195037 13 228 12.9 24.1 0.00 0.00 0.00 33 1019.8
20260503194538 13 309 8.0 24.1 0.00 0.00 0.00 32 1019.8
20260503194037 13 229 11.3 20.9 0.00 0.00 0.00 32 1019.8
20260503193537 13 292 6.4 20.9 0.00 0.00 0.00 34 1020.0
20260503193037 13 286 14.5 24.1 0.00 0.00 0.00 34 1020.1
20260503192536 13 355 14.5 24.1 0.00 0.00 0.00 32 1020.1
20260503192034 13 272 9.7 20.9 0.00 0.00 0.00 33 1020.2
20260503191534 13 286 9.7 22.5 0.00 0.00 0.00 38 1020.4
20260503191033 13 218 8.0 19.3 0.00 0.00 0.00 36 1020.4
20260503190533 13 284 9.7 24.1 0.00 0.00 0.00 39 1020.5
20260503190033 13 225 11.3 20.9 0.00 0.00 0.00 35 1020.5
20260503185532 13 254 6.4 19.3 0.00 0.00 0.00 38 1020.4
20260503185033 12 249 4.8 20.9 0.00 0.00 0.00 36 1020.4
20260503184541 12 200 9.7 27.4 0.00 0.00 0.00 36 1020.5
20260503184030 12 274 17.7 27.4 0.00 0.00 0.00 35 1020.6
20260503183531 12 5 9.7 16.1 0.00 0.00 0.00 39 1020.6
20260503183028 12 184 3.2 14.5 0.00 0.00 0.00 36 1020.6
20260503182528 12 298 3.2 24.1 0.00 0.00 0.00 39 1020.6
20260503182028 12 257 11.3 24.1 0.00 0.00 0.00 38 1020.6
20260503181527 12 239 9.7 19.3 0.00 0.00 0.00 40 1020.7
20260503181031 12 157 1.6 17.7 0.00 0.00 0.00 35 1020.8
20260503180627 12 327 4.8 19.3 0.00 0.00 0.00 41 1020.9
20260503180034 11 290 11.3 19.3 0.00 0.00 0.00 39 1020.9
20260503175525 12 5 8.0 17.7 0.00 0.00 0.00 38 1021.1
20260503175024 12 319 9.7 22.5 0.00 0.00 0.00 42 1021.0
20260503174530 11 28 12.9 25.7 0.00 0.00 0.00 38 1021.0
20260503174025 11 28 11.3 25.7 0.00 0.00 0.00 37 1021.0
20260503173521 11 13 8.0 20.9 0.00 0.00 0.00 43 1021.1
20260503173028 11 275 6.4 20.9 0.00 0.00 0.00 39 1021.2
20260503172519 11 315 9.7 22.5 0.00 0.00 0.00 38 1021.4
20260503172018 11 15 9.7 20.9 0.00 0.00 0.00 41 1021.4
20260503171518 10 303 8.0 24.1 0.00 0.00 0.00 42 1021.6
20260503171019 10 288 12.9 24.1 0.00 0.00 0.00 38 1021.7
20260503170518 10 360 9.7 20.9 0.00 0.00 0.00 37 1021.6